Location: Belfast
(54.5830°N, 5.9330°W)
Time: 02:19:44
(UTC+00:00)

ISS - Pass Details

Date: 29 January 2021
Orbit: 417 x 422 km, 51.6° (Epoch: 25 February)

Event Time Altitude Azimuth Distance (km) Brightness Sun altitude
Rises 18:31:40 0° 265° (W) 2,376 2.0 -13.6°
Reaches altitude 10° 18:33:48 10° 261° (W) 1,512 0.5 -13.9°
Maximum altitude 18:37:06 51° 184° (S) 543 -3.2 -14.4°
Enters shadow 18:38:52 24° 118° (ESE) 928 -2.5 -14.6°
